User: anonymous   Login
Location: Unspecified
(0.0000°N, 0.0000°E)
Time: 08:51:26
(UTC+00:00)
Language:

XW-2A - Orbit

View from above orbital plane
View from above orbital plane
View from above satellite
View from above satellite

Ground track
Ground track

The orbit data is extracted from the following two-line orbital elements,

1 40903U 15049E   18017.12370471  .00001802  00000-0  47365-4 0  9997
2 40903  97.4018  50.3788 0013508 209.4179 150.6307 15.39898859130558
Epoch (UTC): 17 January 2018 02:58:08
Eccentricity: 0.0013508
inclination: 97.4018°
perigee height: 437 km
apogee height: 455 km
right ascension of ascending node: 50.3788°
argument of perigee: 209.4179°
revolutions per day: 15.39898859
mean anomaly at epoch: 150.6307°
orbit number at epoch: 13055

The dashed part of the orbit path shows where the satellite is in the earth's shadow,  

DLR